Content
SEND FEEDBACK

Daily
Averages
Monthly
Summary
United States of America

WEAVERVILLE, CALIFORNIA


Home > North America > United States > California
Elevation: 2080 feet     Latitude: 40 44N     Longitude: 122 56W

WEATHER
 
SELECT A DAY
Number of Records: 61,616;   Date Range: 3/2/12 - 9/29/14
 
SHARE

PRINT THIS DATA

[ ← Previous Day ]
WEATHER ALMANAC - JANUARY 31, 2013
[ Next Day → ]
[ °C ]   °F
Weather ElementAverageHighLow
Temperature33.5 °F50 °F (2:50 pm)26.6 °F (6:50 am)
Dewpoint30.2 °F37.4 °F (3:30 pm)26.6 °F (4:50 am)
Humidity89.1 %100 % (12:50 am)50 % (2:50 pm)
Barometer30.36 in30.43 in (12:30 am)30.27 in (4:10 pm)
Wind Speed1.5 mph4.6 mph (12:30 am)
Weather ElementAverage
Visibility6.7 mi
Wind DirectionESE (111.9 °)

Weather ElementTotal
Precipitation---
Heating Degree Days26.7 (Base 65)
Averaged from 70 records on January 31, 2013
WEATHER CONDITIONS BREAKOUT
WIND DIRECTION BREAKOUT
WEATHER BY HOUR - JANUARY 31, 2013
[ °C ]   °F
Local TimeTemperatureDewpointHumidityBarometerVisibilityWind DirectionWind SpeedGust SpeedPrecipitationEventsConditions
12:30 AM30.2 °F28.4 °F93 %30.43 in10.0 miWest (270°)4.6 mphOvercast
12:50 AM30.2 °F30.2 °F100 %30.43 in1.8 miWest (280°)3.5 mphOvercast
1:10 AM30.2 °F30.2 °F100 %30.43 in0.5 miWNW (290°)3.5 mphOvercast
1:30 AM30.2 °F30.2 °F100 %30.42 in0.2 miWest (270°)3.5 mphOvercast
1:50 AM30.2 °F28.4 °F93 %30.43 in0.2 miCalmOvercast
2:10 AM28.4 °F28.4 °F100 %30.43 in4.0 miCalmOvercast
2:30 AM28.4 °F28.4 °F100 %30.43 in1.0 miWest (270°)3.5 mphOvercast
2:50 AM28.4 °F28.4 °F100 %30.43 in0.5 miCalmOvercast
3:10 AM28.4 °F28.4 °F100 %30.43 in0.5 miCalmOvercast
3:30 AM28.4 °F28.4 °F100 %30.42 in0.5 miCalmOvercast
3:50 AM28.4 °F28.4 °F100 %30.41 in1.2 miCalmOvercast
4:10 AM28.4 °F28.4 °F100 %30.41 in0.5 miWest (270°)3.5 mphOvercast
4:30 AM28.4 °F28.4 °F100 %30.41 in3.0 miCalmOvercast
4:50 AM28.4 °F26.6 °F93 %30.41 in1.2 miWest (280°)3.5 mphOvercast
5:10 AM28.4 °F26.6 °F93 %30.41 in3.0 miWest (280°)3.5 mphOvercast
5:50 AM28.4 °F28.4 °F100 %30.40 in1.5 miWest (270°)3.5 mphOvercast
6:10 AM28.4 °F28.4 °F100 %30.40 in1.5 miWNW (290°)3.5 mphOvercast
6:30 AM28.4 °F28.4 °F100 %30.40 in0.8 miWest (270°)3.5 mphOvercast
6:50 AM26.6 °F26.6 °F100 %30.41 in10.0 miWNW (290°)3.5 mphOvercast
7:10 AM26.6 °F26.6 °F100 %30.41 in7.0 miWNW (290°)3.5 mphOvercast
7:30 AM26.6 °F26.6 °F100 %30.41 in5.0 miWest (260°)3.5 mphOvercast
7:50 AM26.6 °F26.6 °F100 %30.42 in5.0 miWNW (290°)3.5 mphOvercast
8:10 AM28.4 °F26.6 °F93 %30.42 in2.5 miWest (280°)3.5 mphOvercast
8:30 AM28.4 °F26.6 °F93 %30.42 in1.8 miWest (270°)3.5 mphOvercast
8:50 AM28.4 °F28.4 °F100 %30.42 in0.2 miCalmOvercast
9:10 AM28.4 °F28.4 °F100 %30.42 in0.5 miCalmOvercast
9:30 AM28.4 °F28.4 °F100 %30.42 in1.2 miCalmOvercast
9:50 AM30.2 °F30.2 °F100 %30.42 in1.0 miCalmOvercast
10:10 AM32.0 °F30.2 °F93 %30.41 in2.0 miCalmOvercast
10:30 AM32.0 °F32.0 °F100 %30.41 in8.0 miCalmOvercast
10:50 AM32.0 °F32.0 °F100 %30.40 in10.0 miCalmMostly Cloudy
11:10 AM32.0 °F32.0 °F100 %30.39 in10.0 miCalmScattered Clouds
11:30 AM33.8 °F32.0 °F93 %30.38 in10.0 miCalmPartly Cloudy
11:50 AM35.6 °F32.0 °F87 %30.36 in10.0 miCalmClear
12:10 PM37.4 °F32.0 °F81 %30.35 in10.0 miCalmClear
12:30 PM39.2 °F35.6 °F87 %30.34 in10.0 miCalmClear
12:50 PM41.0 °F33.8 °F76 %30.33 in10.0 miCalmClear
1:10 PM42.8 °F35.6 °F76 %30.32 in10.0 miCalmClear
1:30 PM44.6 °F33.8 °F66 %30.31 in10.0 miCalmClear
1:50 PM46.4 °F32.0 °F57 %30.30 in10.0 miCalmClear
2:10 PM48.2 °F32.0 °F54 %30.29 in10.0 miCalmClear
2:30 PM48.2 °F33.8 °F58 %30.29 in10.0 miCalmClear
2:50 PM50.0 °F32.0 °F50 %30.28 in10.0 miCalmClear
3:10 PM48.2 °F35.6 °F62 %30.28 in10.0 miCalmClear
3:30 PM48.2 °F37.4 °F66 %30.28 in10.0 miCalmClear
3:50 PM48.2 °F37.4 °F66 %30.28 in10.0 miCalmClear
4:10 PM46.4 °F37.4 °F71 %30.27 in10.0 miCalmClear
4:30 PM44.6 °F35.6 °F71 %30.27 in10.0 miCalmClear
4:50 PM41.0 °F35.6 °F81 %30.27 in10.0 miCalmClear
5:10 PM39.2 °F33.8 °F81 %30.28 in10.0 miCalmClear
5:30 PM37.4 °F32.0 °F81 %30.28 in9.0 miCalmClear
5:50 PM35.6 °F32.0 °F87 %30.29 in10.0 miWest (260°)3.5 mphClear
6:10 PM35.6 °F32.0 °F87 %30.30 in9.0 miCalmClear
6:30 PM35.6 °F32.0 °F87 %30.30 in10.0 miWNW (290°)3.5 mphClear
6:50 PM35.6 °F30.2 °F81 %30.30 in10.0 miWNW (290°)4.6 mphClear
7:10 PM32.0 °F30.2 °F93 %30.31 in10.0 miWNW (290°)4.6 mphClear
7:30 PM32.0 °F30.2 °F93 %30.32 in10.0 miCalmClear
7:50 PM32.0 °F30.2 °F93 %30.32 in10.0 miCalmClear
8:10 PM32.0 °F28.4 °F87 %30.32 in10.0 miWest (260°)3.5 mphClear
8:30 PM32.0 °F28.4 °F87 %30.33 in10.0 miWest (280°)4.6 mphClear
8:50 PM32.0 °F28.4 °F87 %30.34 in10.0 miWNW (290°)3.5 mphClear
9:10 PM30.2 °F28.4 °F93 %30.34 in9.0 miCalmClear
9:30 PM30.2 °F28.4 °F93 %30.33 in8.0 miCalmClear
9:50 PM30.2 °F28.4 °F93 %30.33 in10.0 miCalmClear
10:10 PM30.2 °F28.4 °F93 %30.34 in10.0 miWest (270°)3.5 mphClear
10:30 PM30.2 °F28.4 °F93 %30.34 in10.0 miWNW (290°)3.5 mphClear
10:50 PM28.4 °F26.6 °F93 %30.34 in9.0 miWNW (300°)3.5 mphClear
11:10 PM28.4 °F26.6 °F93 %30.34 in9.0 miCalmClear
11:30 PM28.4 °F26.6 °F93 %30.35 in10.0 miCalmClear
11:50 PM28.4 °F26.6 °F93 %30.34 in9.0 miWNW (290°)4.6 mphClear
Hourly data recorded from KO86, located miles away from Weaverville, California







STORIES FROM OUR PARTNERS